Regional Weather Roundup
Issued by NWS

Home | Current Version | Previous Version | Text Only | Print | Product List | Glossary On
Versions: 1 2 3 4 5 6 7 8 9 10 11 12 13 14 15 16 17 18 19 20 21 22 23 24 25 26 27 28 29 30 31 32 33 34 35 36 37 38 39 40 41 42 43 44 45 46 47 48 49 50
000
ASUS43 KMPX 272001
RWRMN
WEATHER ROUNDUP FOR MINNESOTA
NATIONAL WEATHER SERVICE TWIN CITIES/CHANHASSEN MN
200 PM CST THU NOV 27 2014


NOTE: "FAIR" INDICATES FEW OR NO CLOUDS BELOW 12,000 FEET WITH NO
SIGNIFICANT WEATHER AND/OR OBSTRUCTIONS TO VISIBILITY. N/A MEANS
CURRENT SKY AND/OR WEATHER CONDITIONS ARE NOT AVAILABLE.

MNZ060>063-068>070-272100-
   Twin Cities Metro

CITY           SKY/WX    TMP DP  RH WIND       PRES   REMARKS
TWIN CITIES    MOSUNNY    7  -4  60 CALM      30.46F
ST PAUL        SUNNY     10  -3  55 CALM      30.47F
CRYSTAL        SUNNY     10  -6  48 CALM      30.44F
BLAINE         SUNNY     10  -2  56 CALM      30.44F
LAKEVILLE      SUNNY      7  -4  61 SW3       30.45S
EDEN PRAIRIE   SUNNY      9  -2  61 SW6       30.44F WCI  -1
SOUTH ST PAUL  SUNNY     10  -4  53 CALM      30.45F
LAKE ELMO      FAIR      10  -2  56 CALM      30.44F
$$
MNZ001>005-007-008-013>017-022>024-027-028-272100-
   Northwest Minnesota

CITY           SKY/WX    TMP DP  RH WIND       PRES   REMARKS
BEMIDJI        SUNNY      3  -9  57 CALM      30.34F
HALLOCK          N/A      7  -2  66 S15       30.34F WCI -11
ROSEAU         SUNNY      3  -6  66 S8        30.35F WCI -10
WARROAD        SUNNY      1  -6  71 SW6       30.35F WCI -10
THIEF RVR FALL SUNNY      1  -2  85 S7        30.35F WCI -11
CROOKSTON      MOSUNNY    1  -6  71 S9        30.39F WCI -14
FOSSTON        SUNNY      3  -8  60 CALM      30.35F
DETROIT LAKES  SUNNY      9  -4  56 S7        30.34F WCI  -3
MOORHEAD       SUNNY      7  -2  66 S6        30.38F WCI  -3
PARK RAPIDS    SUNNY      6  -6  57 CALM      30.33F
MAHNOMEN       FAIR       4  -6  63 S3        30.35F
$$
MNZ006-009>011-018-025>026-272100-
   North Central Minnesota

CITY           SKY/WX    TMP DP  RH WIND       PRES   REMARKS
BAUDETTE       SUNNY      2  -7  66 S5        30.34F WCI  -8
FLAG ISLAND    SUNNY      0  -6  78 S13       30.34F WCI -18
INTL FALLS     SUNNY      3  -7  63 VRB6      30.37F WCI  -8
WASKISH        SUNNY      1  -6  71 CALM      30.36F
BIG FORK       SUNNY      7  -8  51 SW5       30.36F WCI  -2
LONGVILLE      SUNNY      7  -6  56 CALM      30.37F
GRAND RAPIDS   SUNNY      3  -8  60 SW3       30.36S
CRANE LAKE     SUNNY      3  -8  60 SW5       30.40S WCI  -6
ORR            SUNNY      3  -9  55 CALM      30.33F
COOK           SUNNY      3  -8  60 CALM      30.36F
WALKER         FAIR       5  -7  56 S3        30.36F
$$
MNZ012-019>021-037-272100-
   Northeast Minnesota

CITY           SKY/WX    TMP DP  RH WIND       PRES   REMARKS
DULUTH         SUNNY      9  -7  48 W6        30.34F WCI  -1
ELY            SUNNY      5  -8  56 W5        30.33F WCI  -4
HIBBING        SUNNY      7  -9  48 CALM      30.35F
EVELETH        SUNNY      5  -8  56 CALM      30.36F
DULUTH HARBOR  SUNNY     10  -4  52 CALM      30.44S
TWO HARBORS    SUNNY     12  -2  52 W5        30.35S WCI   4
SILVER BAY     SUNNY     12  -6  44 CALM      30.34F
GRAND MARAIS     N/A     12  -5  46 NW7       30.39F WCI   1
G MARAIS ARPRT SUNNY      3  -9  55 NW7       30.28S WCI  -9
$$
MNZ029>031-032-039>041-046>048-054>057-064-272100-
   West Central Minnesota

CITY           SKY/WX    TMP DP  RH WIND       PRES   REMARKS
FERGUS FALLS   SUNNY      7  -6  56 S10       30.40F WCI  -8
WHEATON        SUNNY      3  -4  72 SE13      30.40F WCI -14
MORRIS         SUNNY      3  -6  66 S8        30.39F WCI -10
ALEXANDRIA     SUNNY      6  -5  60 SE9       30.37F WCI  -8
ELBOW LAKE     FAIR       5  -3  68 S12       30.37F HAZE    WCI -11
WADENA         SUNNY      7  -4  61 CALM      30.35F
GLENWOOD       SUNNY      7  -6  56 S5        30.38F WCI  -2
APPLETON       SUNNY      5  -6  61 S5        30.41F WCI  -4
BENSON         SUNNY      1  -6  71 S6        30.41F WCI -10
ORTONVILLE     SUNNY      3  -8  60 SE10      30.38F WCI -12
MADISON        SUNNY      7  -2  66 SE9       30.40F WCI  -7
WILLMAR        FAIR       5  -4  66 S3        30.43F
$$
MNZ033>034-036-042>043-049>051-058-059-272100-
   Central Minnesota

CITY           SKY/WX    TMP DP  RH WIND       PRES   REMARKS
ST CLOUD       SUNNY      7  -5  57 CALM      30.42F
SAUK CENTRE    FAIR       4  -6  64 S6        30.40F WCI  -7
PAYNESVILLE    SUNNY      3  -6  64 E7        30.42F WCI  -9
AITKIN         SUNNY      9  -8  47 CALM      30.37F
PINE RIVER     SUNNY      7  -6  56 CALM      30.39F
BRAINERD       SUNNY      5  -7  57 CALM      30.39F
STAPLES        SUNNY      7  -8  51 SE3       30.37S
LONG PRAIRIE   FAIR       5  -6  61 CALM      30.38F
LITTLE FALLS   SUNNY      7  -8  51 CALM      30.41F
LITCHFIELD     SUNNY      9  -2  61 CALM      30.42F
BUFFALO        SUNNY      6  -5  58 CALM      30.46S
MAPLE LAKE     SUNNY      8  -3  61 CALM      30.44F
$$
MNZ037-044-045-052-053-272100-
   East Central Minnesota

CITY           SKY/WX    TMP DP  RH WIND       PRES   REMARKS
PRINCETON      SUNNY      9  -4  56 CALM      30.42F
MORA             N/A    N/A N/A N/A MISG        N/A
CAMBRIDGE      SUNNY      9  -4  56 CALM      30.41F
RUSH CITY      SUNNY      8  -5  56 CALM      30.43F
MOOSE LAKE     SUNNY     10  -6  48 NW3       30.38F
HINCKLEY       FAIR      10  -4  52 CALM      30.41F
CLOQUET        SUNNY      9  -9  43 NW3       30.36F
MCGREGOR       SUNNY     10  -4  52 SW5       30.39F WCI   2
$$
MNZ071>073-080-081-089-090-097-098-272100-
   Southwest Minnesota

CITY           SKY/WX    TMP DP  RH WIND       PRES   REMARKS
MONTEVIDEO     SUNNY      7  -2  66 SW6       30.43F WCI  -3
GRANITE FALLS  SUNNY      3  -4  72 SE6       30.44F WCI  -8
CANBY          SUNNY      8  -1  64 SE9       30.38F WCI  -5
MARSHALL       SUNNY      5  -6  61 SE8       30.39F WCI  -8
REDWOOD FALLS  SUNNY      0  -6  76 S6        30.44F WCI -12
OLIVIA         SUNNY      5  -4  66 SW6       30.43F WCI  -6
PIPESTONE      CLOUDY     9  -2  61 S10       30.32F WCI  -6
WINDOM         SUNNY      7  -4  61 CALM      30.39F
WORTHINGTON    CLOUDY     7  -6  56 S8        30.37F WCI  -6
JACKSON        MOSUNNY    9  -4  56 S3        30.39F
TRACY          SUNNY      9  -2  61 S8        30.38F WCI  -3
SLAYTON        CLOUDY     7  -3  61 S8        30.35F WCI  -5
$$
MNZ065>067-074>077-082>085-091>093-272100-
   South Central Minnesota

CITY           SKY/WX    TMP DP  RH WIND       PRES   REMARKS
MANKATO        SUNNY      3  -6  66 CALM      30.46F
NEW ULM        SUNNY      0  -6  78 CALM      30.44F
ST JAMES       SUNNY      0  -6  78 CALM      30.46F
FAIRMONT       SUNNY      1  -6  71 S3        30.43F
GLENCOE        SUNNY      7  -1  69 S3        30.45F
FARIBAULT      SUNNY      7  -6  56 SW3       30.45S
OWATONNA       SUNNY      1  -6  71 CALM      30.44S
WASECA         SUNNY      1  -8  66 SW5       30.47S WCI  -8
ALBERT LEA     SUNNY      3  -6  66 W3        30.43S
$$
MNZ078>079-086>088-094>096-272100-
   Southeast Minnesota

CITY           SKY/WX    TMP DP  RH WIND       PRES   REMARKS
ROCHESTER      SUNNY      4  -4  69 NW6       30.41F WCI  -7
RED WING         N/A     10  -2  56 W6        30.45F WCI   1
STANTON        SUNNY      6  -4  62 W3        30.45S
DODGE CENTER   SUNNY      3  -4  72 N5        30.41S WCI  -6
WINONA         SUNNY     12   1  62 N6        30.46F WCI   3
AUSTIN         SUNNY      3  -6  66 W3        30.43R
PRESTON        SUNNY      6  -3  66 NW8       30.41S WCI  -7
$$
ABBREVIATIONS USED IN REMARKS
   TC - TEMPERATURES IN CELSIUS
  WCI - WIND CHILL INDEX
   HX - HEAT INDEX
  VSB - VISIBILITY
$$



USA.gov is the U.S. government's official web portal to all federal, state and local government web resources and services.